Time,TemperatureF,DewpointF,PressureIn,WindDirection,WindDirectionDegrees,WindSpeedMPH,WindSpeedGustMPH,Humidity,HourlyPrecipIn,Conditions,Clouds,dailyrainin,SoftwareType,DateUTC
2013-06-13 00:02:00,68.9,58.0,29.78,SW,216,5.0,-999.0,69,-99.99,,,0.00,weatherlink.com 1.10,2013-06-13 04:02:00,
2013-06-13 00:17:00,68.4,58.0,29.77,SW,227,7.0,-999.0,69,-99.99,,,0.00,weatherlink.com 1.10,2013-06-13 04:17:00,
2013-06-13 00:32:00,68.3,59.0,29.78,NW,316,5.0,-999.0,71,-99.99,,,0.00,weatherlink.com 1.10,2013-06-13 04:32:00,
2013-06-13 00:47:00,67.1,60.0,29.78,NW,310,3.0,-999.0,79,-99.99,,,0.00,weatherlink.com 1.10,2013-06-13 04:47:00,
2013-06-13 01:03:00,66.6,60.0,29.77,SW,235,4.0,-999.0,79,-99.99,,,0.00,weatherlink.com 1.10,2013-06-13 05:03:00,
2013-06-13 01:18:00,66.3,60.0,29.77,North,355,4.0,-999.0,80,-99.99,,,0.00,weatherlink.com 1.10,2013-06-13 05:18:00,
2013-06-13 01:33:00,66.8,61.0,29.76,SW,236,3.0,-999.0,81,-99.99,,,0.00,weatherlink.com 1.10,2013-06-13 05:33:00,
2013-06-13 01:48:00,66.9,59.0,29.77,NW,311,6.0,-999.0,76,-99.99,,,0.00,weatherlink.com 1.10,2013-06-13 05:48:00,
2013-06-13 02:03:00,67.4,58.0,29.77,WNW,302,10.0,-999.0,73,-99.99,,,0.00,weatherlink.com 1.10,2013-06-13 06:03:00,
2013-06-13 02:18:00,67.6,59.0,29.76,WSW,244,14.0,-999.0,73,-99.99,,,0.00,weatherlink.com 1.10,2013-06-13 06:18:00,
2013-06-13 02:33:00,67.4,58.0,29.78,SW,221,7.0,-999.0,72,-99.99,,,0.00,weatherlink.com 1.10,2013-06-13 06:33:00,
2013-06-13 02:48:00,67.3,59.0,29.77,WNW,296,10.0,-999.0,74,-99.99,,,0.00,weatherlink.com 1.10,2013-06-13 06:48:00,
2013-06-13 03:03:00,67.1,59.0,29.78,SSW,205,4.0,-999.0,75,-99.99,,,0.00,weatherlink.com 1.10,2013-06-13 07:03:00,
2013-06-13 03:18:00,66.6,60.0,29.76,SW,226,5.0,-999.0,80,-99.99,,,0.00,weatherlink.com 1.10,2013-06-13 07:18:00,
2013-06-13 03:33:00,65.8,60.0,29.75,NW,304,2.0,-999.0,82,-99.99,,,0.00,weatherlink.com 1.10,2013-06-13 07:33:00,
2013-06-13 03:48:00,65.2,61.0,29.74,SSE,155,0.0,-999.0,87,-99.99,,,0.00,weatherlink.com 1.10,2013-06-13 07:48:00,
2013-06-13 04:03:00,65.0,61.0,29.74,NW,309,5.0,-999.0,86,-99.99,,,0.00,weatherlink.com 1.10,2013-06-13 08:03:00,
2013-06-13 04:18:00,65.3,60.0,29.74,NNW,327,9.0,-999.0,83,-99.99,,,0.00,weatherlink.com 1.10,2013-06-13 08:18:00,
2013-06-13 04:33:00,65.5,60.0,29.74,WSW,253,4.0,-999.0,81,-99.99,,,0.00,weatherlink.com 1.10,2013-06-13 08:33:00,
2013-06-13 04:48:00,65.6,59.0,29.74,WNW,292,5.0,-999.0,78,-99.99,,,0.00,weatherlink.com 1.10,2013-06-13 08:48:00,
2013-06-13 05:03:00,65.3,59.0,29.74,West,269,6.0,-999.0,80,-99.99,,,0.00,weatherlink.com 1.10,2013-06-13 09:03:00,
2013-06-13 05:18:00,65.2,59.0,29.74,South,190,3.0,-999.0,80,-99.99,,,0.00,weatherlink.com 1.10,2013-06-13 09:18:00,
2013-06-13 05:33:00,64.8,59.0,29.72,NNW,333,11.0,-999.0,82,-99.99,,,0.00,weatherlink.com 1.10,2013-06-13 09:33:00,
2013-06-13 05:48:00,64.7,59.0,29.72,SW,230,7.0,-999.0,81,-99.99,,,0.00,weatherlink.com 1.10,2013-06-13 09:48:00,
2013-06-13 06:03:00,64.5,59.0,29.72,WNW,294,11.0,-999.0,83,-99.99,,,0.00,weatherlink.com 1.10,2013-06-13 10:03:00,
2013-06-13 06:18:00,64.3,59.0,29.73,NW,316,4.0,-999.0,82,-99.99,,,0.00,weatherlink.com 1.10,2013-06-13 10:18:00,
2013-06-13 06:33:00,64.3,58.0,29.73,SW,228,7.0,-999.0,80,-99.99,,,0.00,weatherlink.com 1.10,2013-06-13 10:33:00,
2013-06-13 06:48:00,64.7,58.0,29.72,SSW,211,1.0,-999.0,79,-99.99,,,0.00,weatherlink.com 1.10,2013-06-13 10:48:00,
2013-06-13 07:03:00,64.8,59.0,29.72,SSW,194,6.0,-999.0,80,-99.99,,,0.00,weatherlink.com 1.10,2013-06-13 11:03:00,
2013-06-13 07:18:00,65.0,59.0,29.74,SSW,209,8.0,-999.0,80,-99.99,,,0.00,weatherlink.com 1.10,2013-06-13 11:18:00,
2013-06-13 07:33:00,65.5,59.0,29.73,SSE,165,4.0,-999.0,79,-99.99,,,0.00,weatherlink.com 1.10,2013-06-13 11:33:00,
2013-06-13 07:48:00,65.6,59.0,29.72,SSW,207,4.0,-999.0,80,-99.99,,,0.00,weatherlink.com 1.10,2013-06-13 11:48:00,
2013-06-13 08:03:00,66.0,60.0,29.72,South,170,5.0,-999.0,80,-99.99,,,0.00,weatherlink.com 1.10,2013-06-13 12:03:00,
2013-06-13 08:18:00,66.4,60.0,29.72,NW,322,3.0,-999.0,80,-99.99,,,0.00,weatherlink.com 1.10,2013-06-13 12:18:00,
2013-06-13 08:33:00,67.1,61.0,29.72,NW,319,2.0,-999.0,82,-99.99,,,0.00,weatherlink.com 1.10,2013-06-13 12:33:00,
2013-06-13 08:48:00,66.8,62.0,29.72,SW,229,2.0,-999.0,83,-99.99,,,0.00,weatherlink.com 1.10,2013-06-13 12:48:00,
2013-06-13 09:03:00,67.4,62.0,29.71,SW,235,4.0,-999.0,82,-99.99,,,0.00,weatherlink.com 1.10,2013-06-13 13:03:00,
2013-06-13 09:18:00,68.1,62.0,29.71,SW,222,5.0,-999.0,80,-99.99,,,0.00,weatherlink.com 1.10,2013-06-13 13:18:00,
2013-06-13 09:33:00,67.9,62.0,29.70,WNW,289,4.0,-999.0,81,-99.99,,,0.00,weatherlink.com 1.10,2013-06-13 13:33:00,
2013-06-13 09:48:00,68.3,62.0,29.70,WSW,238,3.0,-999.0,80,-99.99,,,0.00,weatherlink.com 1.10,2013-06-13 13:48:00,
2013-06-13 10:03:00,69.1,62.0,29.70,WSW,257,4.0,-999.0,77,-99.99,,,0.00,weatherlink.com 1.10,2013-06-13 14:03:00,
2013-06-13 10:18:00,69.1,61.0,29.68,WSW,243,3.0,-999.0,74,-99.99,,,0.00,weatherlink.com 1.10,2013-06-13 14:18:00,
2013-06-13 10:33:00,69.9,61.0,29.68,WSW,247,7.0,-999.0,73,-99.99,,,0.00,weatherlink.com 1.10,2013-06-13 14:33:00,
2013-06-13 10:48:00,70.3,60.0,29.66,West,266,5.0,-999.0,70,-99.99,,,0.00,weatherlink.com 1.10,2013-06-13 14:48:00,
2013-06-13 11:03:00,70.4,61.0,29.66,SW,220,6.0,-999.0,71,-99.99,,,0.00,weatherlink.com 1.10,2013-06-13 15:03:00,
2013-06-13 11:18:00,71.3,59.0,29.65,SSW,204,9.0,-999.0,65,-99.99,,,0.00,weatherlink.com 1.10,2013-06-13 15:18:00,
2013-06-13 11:33:00,72.1,61.0,29.64,WSW,245,7.0,-999.0,68,-99.99,,,0.00,weatherlink.com 1.10,2013-06-13 15:33:00,
2013-06-13 11:48:00,71.8,60.0,29.63,WNW,291,4.0,-999.0,67,-99.99,,,0.00,weatherlink.com 1.10,2013-06-13 15:48:00,
2013-06-13 12:03:00,72.1,62.0,29.63,NW,326,2.0,-999.0,71,-99.99,,,0.00,weatherlink.com 1.10,2013-06-13 16:03:00,
2013-06-13 12:18:00,72.1,61.0,29.64,WNW,294,12.0,-999.0,67,-99.99,,,0.00,weatherlink.com 1.10,2013-06-13 16:18:00,
2013-06-13 12:33:00,72.5,61.0,29.61,WNW,290,7.0,-999.0,67,-99.99,,,0.00,weatherlink.com 1.10,2013-06-13 16:33:00,
2013-06-13 12:48:00,72.8,61.0,29.61,West,270,13.0,-999.0,66,-99.99,,,0.00,weatherlink.com 1.10,2013-06-13 16:48:00,
2013-06-13 13:03:00,73.9,62.0,29.63,SW,224,24.0,-999.0,67,-99.99,,,0.00,weatherlink.com 1.10,2013-06-13 17:03:00,
2013-06-13 13:18:00,74.0,62.0,29.61,SSW,194,5.0,-999.0,67,-99.99,,,0.00,weatherlink.com 1.10,2013-06-13 17:18:00,
2013-06-13 13:33:00,74.0,63.0,29.61,WSW,246,6.0,-999.0,68,-99.99,,,0.00,weatherlink.com 1.10,2013-06-13 17:33:00,
2013-06-13 13:48:00,73.9,63.0,29.61,West,264,6.0,-999.0,68,-99.99,,,0.00,weatherlink.com 1.10,2013-06-13 17:48:00,
2013-06-13 14:04:00,73.7,62.0,29.61,SW,231,9.0,-999.0,68,-99.99,,,0.00,weatherlink.com 1.10,2013-06-13 18:04:00,
2013-06-13 14:19:00,71.6,62.0,29.61,SW,222,5.0,-999.0,71,-99.99,,,0.00,weatherlink.com 1.10,2013-06-13 18:19:00,
2013-06-13 14:34:00,70.3,62.0,29.62,WSW,239,6.0,-999.0,74,-99.99,,,0.00,weatherlink.com 1.10,2013-06-13 18:34:00,
2013-06-13 14:49:00,69.8,62.0,29.63,SW,227,10.0,-999.0,76,-99.99,,,0.00,weatherlink.com 1.10,2013-06-13 18:49:00,
2013-06-13 15:04:00,69.4,62.0,29.63,NW,314,16.0,-999.0,77,-99.99,,,0.00,weatherlink.com 1.10,2013-06-13 19:04:00,
2013-06-13 15:19:00,67.6,63.0,29.65,WNW,296,0.0,-999.0,86,-99.99,,,0.02,weatherlink.com 1.10,2013-06-13 19:19:00,
2013-06-13 15:34:00,65.5,63.0,29.65,SW,233,14.0,-999.0,92,-99.99,,,0.10,weatherlink.com 1.10,2013-06-13 19:34:00,
2013-06-13 15:49:00,65.5,62.0,29.63,WSW,240,18.0,-999.0,88,-99.99,,,0.19,weatherlink.com 1.10,2013-06-13 19:49:00,
2013-06-13 16:04:00,65.0,61.0,29.62,South,169,22.0,-999.0,86,-99.99,,,0.27,weatherlink.com 1.10,2013-06-13 20:04:00,
2013-06-13 16:19:00,64.5,61.0,29.66,ESE,115,2.0,-999.0,89,-99.99,,,0.33,weatherlink.com 1.10,2013-06-13 20:19:00,
2013-06-13 16:34:00,64.2,62.0,29.67,NE,38,3.0,-999.0,91,-99.99,,,0.36,weatherlink.com 1.10,2013-06-13 20:34:00,
2013-06-13 16:49:00,61.3,59.0,29.71,West,277,0.0,-999.0,92,-99.99,,,0.41,weatherlink.com 1.10,2013-06-13 20:49:00,
2013-06-13 17:04:00,60.9,59.0,29.69,West,271,0.0,-999.0,94,-99.99,,,0.48,weatherlink.com 1.10,2013-06-13 21:04:00,
2013-06-13 17:19:00,61.2,60.0,29.68,NW,313,1.0,-999.0,94,-99.99,,,0.53,weatherlink.com 1.10,2013-06-13 21:19:00,
2013-06-13 17:34:00,61.3,60.0,29.68,NW,312,0.0,-999.0,96,-99.99,,,0.58,weatherlink.com 1.10,2013-06-13 21:34:00,
2013-06-13 18:04:00,61.5,60.0,29.68,NW,307,2.0,-999.0,95,-99.99,,,0.62,weatherlink.com 1.10,2013-06-13 22:04:00,
2013-06-13 18:19:00,61.3,61.0,29.67,NNE,22,0.0,-999.0,97,-99.99,,,0.62,weatherlink.com 1.10,2013-06-13 22:19:00,
2013-06-13 18:34:00,61.2,60.0,29.67,NNE,19,1.0,-999.0,97,-99.99,,,0.62,weatherlink.com 1.10,2013-06-13 22:34:00,
2013-06-13 18:49:00,61.3,60.0,29.67,SSE,161,1.0,-999.0,94,-99.99,,,0.62,weatherlink.com 1.10,2013-06-13 22:49:00,
2013-06-13 19:04:00,61.6,58.0,29.66,SE,131,0.0,-999.0,89,-99.99,,,0.62,weatherlink.com 1.10,2013-06-13 23:04:00,
2013-06-13 19:19:00,61.6,59.0,29.68,WNW,291,0.0,-999.0,90,-99.99,,,0.62,weatherlink.com 1.10,2013-06-13 23:19:00,
2013-06-13 19:34:00,61.5,59.0,29.67,WSW,258,1.0,-999.0,91,-99.99,,,0.62,weatherlink.com 1.10,2013-06-13 23:34:00,
2013-06-13 19:49:00,61.3,58.0,29.67,WSW,257,2.0,-999.0,90,-99.99,,,0.62,weatherlink.com 1.10,2013-06-13 23:49:00,
2013-06-13 20:04:00,61.5,59.0,29.68,West,271,0.0,-999.0,91,-99.99,,,0.62,weatherlink.com 1.10,2013-06-14 00:04:00,
2013-06-13 20:19:00,60.9,60.0,29.66,West,271,2.0,-999.0,95,-99.99,,,0.62,weatherlink.com 1.10,2013-06-14 00:19:00,
2013-06-13 20:34:00,60.5,59.0,29.67,West,271,0.0,-999.0,94,-99.99,,,0.62,weatherlink.com 1.10,2013-06-14 00:34:00,
2013-06-13 20:49:00,60.5,59.0,29.67,West,271,0.0,-999.0,95,-99.99,,,0.62,weatherlink.com 1.10,2013-06-14 00:49:00,
2013-06-13 21:19:00,60.5,59.0,29.66,SW,218,0.0,-999.0,96,-99.99,,,0.62,weatherlink.com 1.10,2013-06-14 01:19:00,
2013-06-13 21:34:00,60.4,59.0,29.66,SW,221,0.0,-999.0,96,-99.99,,,0.62,weatherlink.com 1.10,2013-06-14 01:34:00,
2013-06-13 21:49:00,60.4,59.0,29.68,South,177,3.0,-999.0,94,-99.99,,,0.62,weatherlink.com 1.10,2013-06-14 01:49:00,
2013-06-13 22:04:00,60.2,58.0,29.69,East,95,3.0,-999.0,92,-99.99,,,0.62,weatherlink.com 1.10,2013-06-14 02:04:00,
2013-06-13 22:19:00,59.9,58.0,29.68,WNW,300,4.0,-999.0,92,-99.99,,,0.62,weatherlink.com 1.10,2013-06-14 02:19:00,
2013-06-13 22:34:00,59.9,58.0,29.68,West,278,1.0,-999.0,92,-99.99,,,0.62,weatherlink.com 1.10,2013-06-14 02:34:00,
2013-06-13 22:49:00,59.8,57.0,29.68,SSW,213,4.0,-999.0,91,-99.99,,,0.62,weatherlink.com 1.10,2013-06-14 02:49:00,
2013-06-13 23:04:00,59.5,57.0,29.68,SSW,199,7.0,-999.0,91,-99.99,,,0.62,weatherlink.com 1.10,2013-06-14 03:04:00,
2013-06-13 23:19:00,59.5,57.0,29.67,NNW,327,2.0,-999.0,91,-99.99,,,0.62,weatherlink.com 1.10,2013-06-14 03:19:00,
2013-06-13 23:34:00,59.5,57.0,29.67,West,272,2.0,-999.0,92,-99.99,,,0.62,weatherlink.com 1.10,2013-06-14 03:34:00,
2013-06-13 23:49:00,59.5,58.0,29.67,WNW,282,0.0,-999.0,93,-99.99,,,0.63,weatherlink.com 1.10,2013-06-14 03:49:00,